Regional Weather Roundup
Issued by NWS Charleston, SC

Current Version | Previous Version | Graphics & Text | Print | Product List | Glossary On
Versions: 1 2 3 4 5 6 7 8 9 10 11 12 13 14 15 16 17 18 19 20 21 22 23 24 25 26 27 28 29 30 31 32 33 34 35 36 37 38 39 40 41 42 43 44 45 46 47 48 49 50
660 ASUS42 KCHS 250611 RWRCHS REGIONAL WEATHER ROUNDUP NATIONAL WEATHER SERVICE CHARLESTON SC 100 AM EST SAT FEB 25 2017 NOTE: "FAIR" INDICATES FEW OR NO CLOUDS BELOW 12,000 FEET WITH NO SIGNIFICANT WEATHER AND/OR OBSTRUCTIONS TO VISIBILITY. NOT ALL STATIONS ARE QUALITY CONTROLLED. USE DATA WITH CAUTION... ESPECIALLY DEWPOINT OBSERVATIONS. SCZ027-030-031-034>040-042>050-250700- ...SOUTHEAST SOUTH CAROLINA... CITY SKY/WX TMP DP RH WIND PRES REMARKS N CHARLESTON FOG 59 57 93 CALM 29.84F VSB 1 6HR MIN TEMP: 57; 6HR MAX TEMP: 67; WATERFRONT PRK N/A 63 62 97 VRB3 29.84F MOUNT PLEASANT FAIR 55 55 100 CALM 29.85S JOHNS ISLAND FAIR 57 57 100 CALM 29.84F PINOPOLIS N/A 61 61 100 VRB2 29.75F MONCKS CORNER FOG 54 52 94 CALM 29.84F VSB 3/4 SUMMERVILLE FAIR 55 55 100 CALM 29.85F BEAUFORT MCAS CLEAR 58 57 97 CALM 29.84F 6HR MIN TEMP: 57; 6HR MAX TEMP: 68; BEAUFORT ARPT FAIR 59 59 100 CALM 29.84F HILTON HEAD IS CLEAR 61 61 100 S5 29.85F WALTERBORO CLEAR 59 57 94 CALM 29.85F ALLENDALE FAIR 61 59 94 CALM 29.82F ...SOUTHERN MIDLANDS AND PEE DEE... CITY SKY/WX TMP DP RH WIND PRES REMARKS GEORGETOWN FAIR 52 52 100 CALM 29.85F FOG KINGSTREE FAIR 54 52 94 CALM 29.84F FOG ORANGEBURG CLEAR 61 58 90 S5 29.83F 6HR MIN TEMP: 61; 6HR MAX TEMP: 70; BARNWELL FAIR 63 63 100 SE3 29.83F AIKEN FAIR 59 55 88 S8 29.84F MANNING FAIR 55 54 94 MISG 29.84S COLUMBIA CLEAR 64 58 80 S9 29.80F 6HR MIN TEMP: 63; 6HR MAX TEMP: 73; SUMTER CLEAR 59 56 91 CALM 29.81F 6HR MIN TEMP: 59; 6HR MAX TEMP: 69; FLORENCE CLEAR 58 58 100 S3 29.84S 6HR MIN TEMP: 58; 6HR MAX TEMP: 68; MYRTLE BEACH PTCLDY 56 55 97 CALM 29.85S FOG N MYRTLE BEACH PTCLDY 55 55 100 CALM 29.84S FOG 6HR MIN TEMP: 54; 6HR MAX TEMP: 65; $$ GAZ063-065-086>088-099>101-113>116-118-119-134>141-150-250700- ...SOUTHEAST GEORGIA... CITY SKY/WX TMP DP RH WIND PRES REMARKS SAVANNAH ARPT CLEAR 60 57 89 SE3 29.84F 6HR MIN TEMP: 60; 6HR MAX TEMP: 68; HUNTER AAF CLEAR 59 59 100 CALM 29.82F 6HR MIN TEMP: 58; 6HR MAX TEMP: 66; FORT STEWART FOG 57 57 100 CALM 29.81F VSB 3/4 6HR MIN TEMP: 58; 6HR MAX TEMP: 69; STATESBORO CLEAR 62 50 66 S5 29.83F SYLVANIA PTCLDY N/A N/A N/A CALM 29.84F CLAXTON FAIR N/A N/A N/A CALM 29.83F ...CSRA...CENTRAL AND FAR SOUTHEAST GEORGIA... CITY SKY/WX TMP DP RH WIND PRES REMARKS THOMSON CLEAR 66 61 83 CALM 29.84F AUGUSTA-BUSH PTCLDY 64 59 83 S7 29.80F 6HR MIN TEMP: 60; 6HR MAX TEMP: 71; AUGUSTA-DANIEL CLEAR 64 56 75 SE7 29.81F SWAINSBORO FAIR 63 61 94 SE6 29.83F VIDALIA CLEAR 63 63 100 S5 29.83F EASTMAN FAIR 65 58 77 S5 29.84S HAZLEHURST FAIR 65 65 100 S5 29.81F ALMA CLEAR 64 63 96 SE8 29.82F 6HR MIN TEMP: 64; 6HR MAX TEMP: 71; WAYCROSS CLEAR 66 66 100 S5 29.83F JESUP FOG 59 55 88 CALM 29.85S VSB 1/2 BAXLEY FAIR 64 64 100 S5 29.83F BRUNSWICK FOG 59 59 100 CALM 29.85F VSB 1/4 SAINT SIMONS CLEAR 65 64 97 S5 29.84F 6HR MIN TEMP: 64; 6HR MAX TEMP: 65; $$ SCZ027-028-034-036>038-045-046-048>050-GAZ119-141-250700- ...LAKE AND SUPPLEMENTAL COASTAL OBSERVATIONS... STATION/POSITION TIME TEMP WIND PRES WAVE SWELL AIR SEA DIR/SP/G HT/PER HT/PER/DIR (UTC) (F) (DEG/KT/KT) (MB) (FT/S) (FT/S/D) WINYAH BAY NOT AVBL LAKE MURRAY 0520 64 160/ 10/ 12 1009.1 ACE BASIN NERRS NOT AVBL FORT PULASKI 0548 140/ 4/ 5 1010.7F SAPELO ISLAND 0500 64 160/ 2 1011.0 $$ ANZ835-935-AMZ111-154-330-350-352-354-370-450-454-472-250700- ...C-MAN AND BUOY OBSERVATIONS... STATION/POSITION TIME TEMP WIND PRES WAVE SWELL AIR SEA DIR/SP/G HT/PER HT/PER/DIR (UTC) (F) (DEG/KT/KT) (MB) (FT/S) (FT/S/D) BUOY 41004 0450 69 71 CALM / 2 1010.2 8/10 8/120/10 BUOY 41008 0450 63 62 160/ 4/ 4 1010.8 4/11 5/ 70/11 FOLLY BEACH CMAN 0500 63 250/ 3/ 4 1011.4S CAPERS NEARSHORE 0508 62 61 280/ 4/ 8 1010.8R FRIPP NEARSHORE 0508 62 62 190/ 4/ 4 1010.8F STATION/POSITION TIME TEMP WIND PRES WAVE SWELL AIR SEA DIR/SP/G HT/PER HT/PER/DIR (UTC) (F) (DEG/KT/KT) (MB) (FT/S) (FT/S/D) 5E ST. MARYS GA 0530 64 N/A 4/11 2/100/11 FRYING PAN BUOY 0550 71 72 50/ 4/ 6 1009.6S 7/11 7/130/11 BUOY 41025 0550 71 76 110/ 12/ 16 1009.0F 9/10 8/110/10 CAPE LOOKOUT NC 0500 67 100/ 7/ 7 1009.3F BUOY 41002 0550 69 70 190/ 6/ 8 1007.4F 10/10 10/100/10 BUOY 41010 NOT AVBL ST AUGUSTINE FL 0600 65 67 220/ 1/ 2 1011.7F $$

USA.gov is the U.S. government's official web portal to all federal, state and local government web resources and services.